Time,TemperatureF,DewpointF,PressureIn,WindDirection,WindDirectionDegrees,WindSpeedMPH,WindSpeedGustMPH,Humidity,HourlyPrecipIn,Conditions,Clouds,dailyrainin,SoftwareType,DateUTC
2013-08-05 13:53:00,0.0,0.0,30.13,North,0,0.0,-999.0,0,0.00,,,0.00,,2013-08-05 20:53:00,
2013-08-05 14:03:00,73.1,58.3,30.13,North,0,0.0,-999.0,60,0.00,,,0.00,,2013-08-05 21:03:00,
2013-08-05 14:13:00,72.5,57.3,30.12,North,0,0.0,-999.0,59,0.00,,,0.00,,2013-08-05 21:13:00,
2013-08-05 14:24:00,72.0,57.4,30.12,North,0,0.0,-999.0,60,0.00,,,0.00,,2013-08-05 21:24:00,
2013-08-05 14:34:00,72.4,57.7,30.12,North,0,0.0,-999.0,60,0.00,,,0.00,,2013-08-05 21:34:00,
2013-08-05 14:45:00,72.4,57.3,30.12,North,0,0.0,-999.0,59,0.00,,,0.00,,2013-08-05 21:45:00,
2013-08-05 14:55:00,72.2,57.5,30.12,North,0,0.0,-999.0,60,0.00,,,0.00,,2013-08-05 21:55:00,
2013-08-05 15:05:00,71.8,57.7,30.11,North,0,0.0,-999.0,61,0.00,,,0.00,,2013-08-05 22:05:00,
2013-08-05 15:16:00,71.8,58.1,30.11,North,0,0.0,-999.0,62,0.00,,,0.00,,2013-08-05 22:16:00,
2013-08-05 15:26:00,71.3,57.6,30.10,North,0,0.0,-999.0,62,0.00,,,0.00,,2013-08-05 22:26:00,
2013-08-05 15:37:00,72.2,58.0,30.10,North,0,0.0,-999.0,61,0.00,,,0.00,,2013-08-05 22:37:00,
2013-08-05 15:47:00,72.4,58.1,30.10,North,0,0.0,-999.0,61,0.00,,,0.00,,2013-08-05 22:47:00,
2013-08-05 15:58:00,72.0,58.2,30.09,North,0,0.0,-999.0,62,0.00,,,0.00,,2013-08-05 22:58:00,
2013-08-05 16:08:00,72.9,58.7,30.09,North,0,0.0,-999.0,61,0.00,,,0.00,,2013-08-05 23:08:00,
2013-08-05 16:18:00,72.5,57.9,30.09,North,0,0.0,-999.0,60,0.00,,,0.00,,2013-08-05 23:18:00,
2013-08-05 16:28:00,72.4,57.7,30.09,North,0,0.0,-999.0,60,0.00,,,0.00,,2013-08-05 23:28:00,
2013-08-05 16:39:00,71.8,57.7,30.09,North,0,0.0,-999.0,61,0.00,,,0.00,,2013-08-05 23:39:00,
2013-08-05 16:40:00,71.3,56.7,30.08,North,0,0.0,-999.0,60,0.00,,,0.00,,2013-08-05 23:40:00,
2013-08-05 17:00:00,71.1,56.6,30.08,North,0,0.0,-999.0,60,0.00,,,0.00,,2013-08-06 00:00:00,
2013-08-05 17:10:00,71.3,56.3,30.08,North,0,0.0,-999.0,59,0.00,,,0.00,,2013-08-06 00:10:00,
2013-08-05 17:21:00,70.9,55.9,30.08,North,0,0.0,-999.0,59,0.00,,,0.00,,2013-08-06 00:21:00,
2013-08-05 17:31:00,69.8,55.4,30.08,North,0,0.0,-999.0,60,0.00,,,0.00,,2013-08-06 00:31:00,
2013-08-05 17:42:00,69.1,55.5,30.08,North,0,0.0,-999.0,62,0.00,,,0.00,,2013-08-06 00:42:00,
2013-08-05 17:53:00,68.8,55.6,30.08,North,0,0.0,-999.0,63,0.00,,,0.00,,2013-08-06 00:53:00,
2013-08-05 18:03:00,68.6,55.9,30.07,North,0,0.0,-999.0,64,0.00,,,0.00,,2013-08-06 01:03:00,
2013-08-05 18:13:00,68.2,56.0,30.08,North,0,0.0,-999.0,65,0.00,,,0.00,,2013-08-06 01:13:00,
2013-08-05 18:24:00,67.3,55.5,30.08,North,0,0.0,-999.0,66,0.00,,,0.00,,2013-08-06 01:24:00,
2013-08-05 18:34:00,66.8,55.9,30.08,North,0,0.0,-999.0,68,0.00,,,0.00,,2013-08-06 01:34:00,
2013-08-05 18:45:00,66.1,55.6,30.08,North,0,0.0,-999.0,69,0.00,,,0.00,,2013-08-06 01:45:00,
2013-08-05 18:55:00,64.8,55.3,30.08,North,0,0.0,-999.0,71,0.00,,,0.00,,2013-08-06 01:55:00,
2013-08-05 19:06:00,64.1,55.3,30.08,North,0,0.0,-999.0,73,0.00,,,0.00,,2013-08-06 02:06:00,
2013-08-05 19:16:00,63.5,55.1,30.09,North,0,0.0,-999.0,74,0.00,,,0.00,,2013-08-06 02:16:00,
2013-08-05 19:26:00,63.4,54.9,30.09,North,0,0.0,-999.0,74,0.00,,,0.00,,2013-08-06 02:26:00,
2013-08-05 19:37:00,63.0,54.5,30.09,North,0,0.0,-999.0,74,0.00,,,0.00,,2013-08-06 02:37:00,
2013-08-05 19:47:00,62.5,54.0,30.09,North,0,0.0,-999.0,74,0.00,,,0.00,,2013-08-06 02:47:00,
2013-08-05 19:58:00,62.3,54.2,30.10,North,0,0.0,-999.0,75,0.00,,,0.00,,2013-08-06 02:58:00,
2013-08-05 20:08:00,61.9,53.9,30.10,North,0,0.0,-999.0,75,0.00,,,0.00,,2013-08-06 03:08:00,
2013-08-05 20:19:00,61.4,53.4,30.10,North,0,0.0,-999.0,75,0.00,,,0.00,,2013-08-06 03:19:00,
2013-08-05 20:29:00,60.8,53.6,30.10,North,0,0.0,-999.0,77,0.00,,,0.00,,2013-08-06 03:29:00,
2013-08-05 20:30:00,60.5,53.3,30.10,North,0,0.0,-999.0,77,0.00,,,0.00,,2013-08-06 03:30:00,
2013-08-05 20:50:00,60.1,52.9,30.10,North,0,0.0,-999.0,77,0.00,,,0.00,,2013-08-06 03:50:00,
2013-08-05 21:01:00,59.8,52.2,30.11,North,0,0.0,-999.0,76,0.00,,,0.00,,2013-08-06 04:01:00,
2013-08-05 21:11:00,59.4,51.8,30.11,North,0,0.0,-999.0,76,0.00,,,0.00,,2013-08-06 04:11:00,
2013-08-05 21:21:00,59.4,51.8,30.12,North,0,0.0,-999.0,76,0.00,,,0.00,,2013-08-06 04:21:00,
2013-08-05 21:32:00,59.0,51.5,30.12,North,0,0.0,-999.0,76,0.00,,,0.00,,2013-08-06 04:32:00,
2013-08-05 21:42:00,58.9,51.7,30.12,North,0,0.0,-999.0,77,0.00,,,0.00,,2013-08-06 04:42:00,
2013-08-05 21:52:00,58.7,51.5,30.12,North,0,0.0,-999.0,77,0.00,,,0.00,,2013-08-06 04:52:00,
2013-08-05 22:03:00,58.5,51.3,30.12,North,0,0.0,-999.0,77,0.00,,,0.00,,2013-08-06 05:03:00,
2013-08-05 22:13:00,58.1,51.7,30.12,North,0,0.0,-999.0,79,0.00,,,0.00,,2013-08-06 05:13:00,
2013-08-05 22:24:00,57.8,51.3,30.12,North,0,0.0,-999.0,79,0.00,,,0.00,,2013-08-06 05:24:00,
2013-08-05 22:34:00,57.4,51.7,30.12,North,0,0.0,-999.0,81,0.00,,,0.00,,2013-08-06 05:34:00,
2013-08-05 22:44:00,57.4,51.7,30.12,North,0,0.0,-999.0,81,0.00,,,0.00,,2013-08-06 05:44:00,
2013-08-05 22:55:00,57.4,51.3,30.12,North,0,0.0,-999.0,80,0.00,,,0.00,,2013-08-06 05:55:00,
2013-08-05 23:05:00,57.4,51.7,30.12,North,0,0.0,-999.0,81,0.00,,,0.00,,2013-08-06 06:05:00,
2013-08-05 23:15:00,57.2,51.8,30.12,North,0,0.0,-999.0,82,0.00,,,0.00,,2013-08-06 06:15:00,
2013-08-05 23:26:00,57.2,51.8,30.12,North,0,0.0,-999.0,82,0.00,,,0.00,,2013-08-06 06:26:00,
2013-08-05 23:36:00,57.2,51.8,30.12,North,0,0.0,-999.0,82,0.00,,,0.00,,2013-08-06 06:36:00,
2013-08-05 23:46:00,57.4,51.9,30.13,North,0,0.0,-999.0,82,0.00,,,0.00,,2013-08-06 06:46:00,
2013-08-05 23:56:00,57.4,51.7,30.13,North,0,0.0,-999.0,81,0.00,,,0.00,,2013-08-06 06:56:00,